Back to catalog

STARLINK-38199

AliveCommunicationsSSO
NORAD 100218·PAYLOAD·🇺🇸 United States

Launched Aug 4, 2026 from Vandenberg Space Force Base

Loading…

Next Passes (next 24 hours)

TLE

FreshSource: Space-Track

Epoch: Sep 14, 2026, 22:59 UTC

1 A0218U 26177F   26257.95802338  .00039577  00000-0  72494-3 0  9994
2 A0218  97.2834 308.7169 0001493  84.3132 275.8289 15.49218838  6509

Track STARLINK-38199 in real time with AllMySat

Download on the App Store